Location: Biltmore Gardens
(41.6070°N, 83.4666°W)
Time: 13:58:21
(UTC+00:00)

Okean 1 - Pass Details

Date: 14 July 2020
Orbit: 538 x 555 km, 82.5° (Epoch: 12 August)

Event Time Altitude Azimuth Distance (km) Brightness Sun altitude
Rises 06:40:41 0° 353° (N) 2,705 7.9 -25.2°
Reaches altitude 10° 06:42:51 10° 354° (N) 1,810 6.8 -25.1°
Enters shadow 06:46:13 62° 10° (N) 614 3.7 -25.0°
